[[{"header":{"parameterUnit":"m.s-1","parameterCategory":1,"la1":30.2991,"la2":30.254,"lo1":-89.0895,"lo2":-89.0444,"dy":0.0017,"dx":0.0017,"nx":28,"ny":28,"refTime":"2024-08-16T03:00:00:Z","depth":0,"parameterNumber":2,"parameterNumberName":"U-component_of_WINDS"},"data":[0,0,0,0,0,0,0,0,0,0,0,0,0,0,0,0,0,0,0,0,0,0,0,0,0,0,0,0,0,0,0,0,0,0,0,0,0,0,0,0,0,0,0,0,0,0,0,0,0,0,0,0,0,0,0,0,0,0,0.7985,0.7985,0,0.7991,0.7991,0.7991,0.8,0.8,0.8,0.8,0.8005,0.8005,0.8005,0,0,0,0,0,0,0,0,0,0,0,0,0,0.7977,0.7977,0.7985,0.7985,0.7985,0.7991,0.7991,0.7991,0.8,0.8,0.8,0.8,0.8005,0.8005,0.8005,0,0,0,0,0,0,0,0,0,0,0,0,0,0.7981,0.7977,0.7985,0.799,0.7991,0.7991,0.7991,0.7991,0.8,0.8,0.8,0.8,0.8005,0.8005,0.8005,0.8,0,0,0.8005,0.8005,0,0,0,0,0,0,0,0,0.7981,0.7982,0.7989,0.799,0.799,0.7995,0.799,0.7994,0.8,0.7996,0.8,0.8001,0.8001,0.8002,0.8002,0.8,0.8001,0.8005,0.8005,0.8005,0.8005,0,0,0,0,0,0,0,0.7981,0.7981,0.7987,0.7989,0.799,0.7991,0.7992,0.7991,0.7997,0.7997,0.7997,0.7998,0.8002,0.8002,0.8002,0.8001,0.8005,0.8005,0.8005,0.8005,0.7993,0.7992,0,0,0,0,0,0,0.798,0.7981,0.7987,0.7988,0.7986,0.7991,0.7992,0.7993,0.7997,0.7998,0.7998,0.7998,0.8002,0.8002,0.8003,0.7996,0.8005,0.8005,0.8005,0.7993,0.7992,0.7992,0,0,0,0,0,0,0.798,0.798,0.7987,0.7984,0.7985,0.7991,0.7992,0.7993,0.7994,0.7998,0.7999,0.7997,0.8002,0.8003,0.8,0.7996,0.8005,0.8005,0.7993,0.7993,0.7992,0.7983,0,0,0,0,0,0,0.7979,0.798,0.798,0.7984,0.7986,0.7986,0.7992,0.7993,0.7994,0.7995,0.7998,0.7999,0.8002,0.8,0.8,0.7996,0.8005,0.7994,0.7993,0.7992,0.7984,0.7982,0.7981,0,0,0,0,0,0.7979,0.7977,0.798,0.798,0.7985,0.7986,0.7986,0.7991,0.7994,0.7992,0.7995,0.7999,0.7997,0.8,0.8,0.7996,0.7994,0.7993,0.7992,0.7984,0.7983,0.7981,0,0,0,0,0,0,0.7972,0.7978,0.7981,0.7981,0.7982,0.7987,0.7986,0.7989,0.799,0.799,0.7995,0.7996,0.7992,0.7994,0.7998,0.799,0.7996,0.7995,0.7989,0.7988,0.7987,0.7986,0.8005,0,0,0,0,0,0.797,0.7971,0.7976,0.7975,0.7976,0.7981,0.7981,0.7984,0.7986,0.7987,0.7989,0.799,0.7989,0.7989,0.7988,0.7984,0.7983,0.7981,0.798,0.7978,0.7978,0.7973,0.7971,0.799,0.799,0.799,0,0,0.7967,0.797,0.7971,0.7974,0.7976,0.7975,0.7981,0.7981,0.798,0.7987,0.7984,0.7986,0.7987,0.7983,0.7981,0.7984,0.7972,0.7978,0.7977,0.7976,0.7972,0.797,0.7968,0.7989,0.7989,0.799,0,0,0.7961,0.7964,0.7963,0.7964,0.7966,0.7969,0.7968,0.7972,0.7973,0.7971,0.7975,0.7973,0.7973,0.7972,0.7972,0.7962,0.7965,0.7962,0.7955,0.795,0.7949,0.7947,0.7942,0.794,0.7961,0.7961,0.7961,0,0.7956,0.7956,0.7961,0.796,0.796,0.7966,0.7963,0.7964,0.7966,0.7965,0.7969,0.7966,0.7967,0.7962,0.7959,0.796,0.7958,0.7962,0.7949,0.7947,0.7946,0.7941,0.7939,0.7961,0.7961,0.7961,0.7961,0,0.795,0.7949,0.7948,0.7949,0.7949,0.7947,0.795,0.7949,0.7952,0.7953,0.7949,0.7951,0.795,0.7949,0.7952,0.7943,0.7944,0.7948,0.7954,0.7944,0.7939,0.7937,0.796,0.796,0.796,0.7961,0,0,0.7941,0.7943,0.7942,0.7942,0.7944,0.7943,0.794,0.7939,0.7937,0.7937,0.7934,0.7932,0.7934,0.7934,0.7936,0.7932,0.7922,0.7936,0.7936,0.7932,0.791,0.7906,0.7904,0.7924,0.7923,0.7923,0.7909,0,0.7934,0.793,0.7933,0.7928,0.7926,0.793,0.7927,0.7927,0.7928,0.7925,0.7926,0.7923,0.7928,0.7927,0.7924,0.7924,0.7917,0.7925,0.7919,0.7918,0.7917,0.7902,0.7898,0.7885,0.7907,0.7907,0.7907,0,0.7926,0.7925,0.792,0.7919,0.7919,0.7916,0.7914,0.7912,0.7911,0.7911,0.791,0.7912,0.7907,0.7913,0.7905,0.791,0.7907,0.7907,0.7906,0.7905,0.7911,0.7899,0.7881,0.7878,0.7904,0.7904,0.7904,0,0.7917,0.7915,0.7911,0.7911,0.7911,0.7908,0.7908,0.7907,0.7905,0.7903,0.7901,0.7898,0.7896,0.7893,0.7894,0.7898,0.7885,0.7891,0.7883,0.7883,0.788,0.788,0.7861,0.788,0.7881,0.7881,0.7881,0,0.7909,0.7905,0.7907,0.7905,0.7899,0.7902,0.7896,0.7896,0.7895,0.7891,0.7894,0.789,0.7891,0.7887,0.7887,0.7879,0.7879,0.7877,0.7877,0.7877,0.7876,0.7874,0.7875,0.788,0.788,0.788,0.788,0,0.7899,0.7901,0.7896,0.7896,0.7895,0.7891,0.789,0.7887,0.7887,0.7881,0.788,0.788,0.7874,0.7875,0.7869,0.7869,0.7858,0.786,0.7859,0.7859,0.785,0.785,0.7828,0.7824,0.7848,0.7847,0.7847,0,0.7894,0.7891,0.7889,0.7887,0.7886,0.7882,0.788,0.7881,0.7879,0.7875,0.7871,0.7866,0.7862,0.7852,0.7851,0.7845,0.7846,0.7838,0.7845,0.7844,0.7844,0.7843,0.7842,0.7837,0.7837,0.7837,0.7836,0,0.7883,0.7883,0.788,0.7876,0.7873,0.787,0.7868,0.7865,0.7866,0.7862,0.7856,0.7853,0.7846,0.7839,0.7834,0.7832,0.7833,0.7834,0.7832,0.783,0.7829,0.7828,0.7853,0.7835,0.7835,0.7835,0.7835,0.7835,0.7874,0.7871,0.7868,0.7864,0.7862,0.7858,0.7854,0.7853,0.7848,0.7842,0.7843,0.7836,0.7832,0.7824,0.7821,0.7814,0.7817,0.7814,0.7813,0.7812,0.781,0.7831,0.7813,0.7813,0.7814,0.7814,0.7814,0,0.7862,0.786,0.7856,0.7852,0.7847,0.7849,0.7845,0.7841,0.7835,0.7831,0.7826,0.7818,0.7811,0.7808,0.7801,0.7796,0.7796,0.7794,0.7793,0.7792,0.7809,0.7811,0.7793,0.7793,0.7793,0.7793,0.7793,0.7793,0.7856,0.7849,0.7848,0.7839,0.7836,0.7829,0.7827,0.7823,0.7819,0.781,0.7804,0.7802,0.7797,0.7789,0.7782,0.7781,0.7778,0.7775,0.7774,0.779,0.7792,0.7794,0.7795,0.7774,0.7774,0.7757,0.7757,0.7757]},{"header":{"parameterUnit":"m.s-1","parameterCategory":1,"la1":30.2991,"la2":30.254,"lo1":-89.0895,"lo2":-89.0444,"dy":0.0017,"dx":0.0017,"nx":28,"ny":28,"refTime":"2024-08-16T03:00:00:Z","depth":0,"parameterNumber":3,"parameterNumberName":"V-component_of_WINDS"},"data":[0,0,0,0,0,0,0,0,0,0,0,0,0,0,0,0,0,0,0,0,0,0,0,0,0,0,0,0,0,0,0,0,0,0,0,0,0,0,0,0,0,0,0,0,0,0,0,0,0,0,0,0,0,0,0,0,0,0,1.9463,1.9463,0,1.9488,1.9488,1.9488,1.9465,1.9464,1.9464,1.9463,1.9486,1.9488,1.9489,0,0,0,0,0,0,0,0,0,0,0,0,0,1.9393,1.9394,1.9463,1.9463,1.9463,1.9488,1.9488,1.9488,1.9466,1.9464,1.9463,1.9462,1.9486,1.9488,1.9489,0,0,0,0,0,0,0,0,0,0,0,0,0,1.9421,1.9394,1.9463,1.9455,1.9454,1.9487,1.9488,1.9488,1.9466,1.9464,1.9463,1.9462,1.9485,1.9487,1.949,1.9531,0,0,1.9496,1.9497,0,0,0,0,0,0,0,0,1.9419,1.9423,1.9456,1.9456,1.9455,1.9472,1.9472,1.9502,1.9466,1.9461,1.9463,1.9461,1.9483,1.9485,1.9493,1.9532,1.9533,1.9497,1.9498,1.9499,1.95,0,0,0,0,0,0,0,1.9417,1.9422,1.9472,1.9456,1.9456,1.9449,1.9452,1.9477,1.9479,1.9462,1.946,1.9464,1.9482,1.949,1.9493,1.9533,1.9497,1.9499,1.95,1.9501,1.9606,1.9607,0,0,0,0,0,0,1.9416,1.9421,1.9472,1.9473,1.9433,1.9452,1.9454,1.9468,1.9479,1.9479,1.9465,1.9462,1.9487,1.949,1.9494,1.9541,1.9499,1.9501,1.9502,1.9604,1.9606,1.9607,0,0,0,0,0,0,1.9415,1.9421,1.9471,1.9447,1.9452,1.9454,1.947,1.9469,1.9477,1.9481,1.9481,1.9473,1.9486,1.9491,1.9521,1.9542,1.9502,1.9504,1.9602,1.9605,1.9607,1.9637,0,0,0,0,0,0,1.9413,1.9421,1.9437,1.9447,1.9454,1.9499,1.9471,1.9471,1.9482,1.9479,1.9489,1.9489,1.9486,1.9518,1.9524,1.9544,1.9506,1.9601,1.9603,1.9606,1.9634,1.964,1.9645,0,0,0,0,0,1.9411,1.9445,1.9438,1.9445,1.9474,1.95,1.9504,1.9499,1.9483,1.9499,1.9501,1.9489,1.9539,1.9522,1.9527,1.9549,1.9599,1.9603,1.9606,1.9632,1.9639,1.9645,0,0,0,0,0,0,1.9437,1.9446,1.9439,1.9477,1.9488,1.9496,1.9516,1.9507,1.9522,1.9519,1.9512,1.9515,1.9547,1.9551,1.9532,1.9588,1.9566,1.9571,1.9584,1.9591,1.9596,1.9594,1.9508,0,0,0,0,0,1.9448,1.9469,1.9475,1.9508,1.9514,1.9514,1.9525,1.9521,1.9532,1.9536,1.954,1.9551,1.9568,1.958,1.9597,1.9635,1.9636,1.9653,1.9658,1.9662,1.9666,1.9685,1.9692,1.9618,1.9618,1.9618,0,0,1.9469,1.9477,1.949,1.9514,1.9522,1.9542,1.9518,1.9542,1.9556,1.9539,1.9568,1.9572,1.9583,1.9617,1.9633,1.9622,1.9687,1.9667,1.967,1.9671,1.9689,1.9696,1.9702,1.962,1.962,1.962,0,0,1.9519,1.9527,1.9555,1.9563,1.9575,1.9575,1.9582,1.9591,1.9593,1.9622,1.9609,1.9626,1.9658,1.9665,1.9673,1.9725,1.9713,1.973,1.9758,1.9776,1.9782,1.9787,1.9804,1.981,1.9734,1.9734,1.9734,0,1.9544,1.9575,1.957,1.9594,1.9604,1.959,1.9617,1.9625,1.9642,1.9649,1.9636,1.9674,1.9681,1.9716,1.9728,1.9736,1.9742,1.9728,1.9782,1.9787,1.9791,1.9807,1.9814,1.9736,1.9736,1.9736,1.9735,0,1.9604,1.9626,1.9647,1.9664,1.9676,1.9702,1.97,1.9713,1.9707,1.9708,1.9737,1.9744,1.9761,1.9769,1.9764,1.9803,1.9796,1.9783,1.976,1.98,1.9815,1.9821,1.9739,1.9738,1.9737,1.9737,0,0,1.9671,1.9684,1.9692,1.9698,1.971,1.9727,1.9751,1.9768,1.9778,1.979,1.9809,1.9836,1.9823,1.9833,1.9828,1.9844,1.9882,1.9829,1.9829,1.9838,1.9924,1.9933,1.994,1.9875,1.9877,1.9878,1.9923,0,1.972,1.9762,1.9758,1.9798,1.9817,1.9803,1.9824,1.9833,1.9834,1.985,1.9851,1.9869,1.9852,1.9857,1.9873,1.9875,1.9899,1.9871,1.9892,1.9893,1.9888,1.9948,1.9958,2.0,1.9929,1.993,1.993,0,1.9782,1.9796,1.9838,1.9846,1.9853,1.9872,1.9887,1.9903,1.9912,1.9911,1.9921,1.9913,1.9936,1.9914,1.9945,1.9926,1.9934,1.9936,1.9937,1.9938,1.9913,1.9949,2.0014,2.002,1.994,1.9939,1.9938,0,1.9825,1.9854,1.9882,1.9889,1.9899,1.9912,1.9917,1.9925,1.9935,1.9947,1.9953,1.9968,1.9976,1.9988,1.9984,1.9968,2.0015,1.9993,2.0014,2.0014,2.0023,2.0022,2.0089,2.0031,2.0031,2.0031,2.003,0,1.9879,1.9904,1.9901,1.9919,1.9947,1.9941,1.9969,1.9972,1.9979,1.9995,1.9985,2.0001,1.9995,2.001,2.0007,2.0032,2.0036,2.0035,2.0034,2.0036,2.0035,2.004,2.0036,2.0032,2.0032,2.0032,2.0031,0,1.9931,1.993,1.9959,1.9966,1.9969,1.9989,1.9994,2.001,2.001,2.0031,2.0036,2.0036,2.0053,2.005,2.0069,2.0067,2.0098,2.0094,2.0095,2.0093,2.0114,2.0112,2.0184,2.0193,2.0131,2.0131,2.0132,0,1.9964,1.9984,1.9993,2.0003,2.0009,2.0026,2.0036,2.0031,2.0042,2.0053,2.0067,2.0084,2.0096,2.0124,2.0125,2.0139,2.0135,2.0159,2.0137,2.0137,2.0133,2.0131,2.0133,2.0163,2.0164,2.0165,2.0165,0,2.0024,2.0022,2.0038,2.0052,2.0064,2.0076,2.0086,2.0095,2.0091,2.0103,2.0121,2.0131,2.015,2.0166,2.0179,2.0183,2.0173,2.0172,2.0177,2.0179,2.0178,2.0177,2.0106,2.017,2.017,2.0169,2.0169,2.0169,2.0067,2.0083,2.0091,2.0108,2.0115,2.0124,2.0139,2.0141,2.0155,2.0171,2.0167,2.0186,2.0194,2.021,2.0216,2.023,2.0221,2.0229,2.0231,2.0233,2.0234,2.0177,2.0233,2.0233,2.0232,2.0232,2.0232,0,2.0124,2.0129,2.0145,2.0159,2.0172,2.0162,2.0172,2.0183,2.0201,2.0209,2.0221,2.0241,2.0256,2.0258,2.0272,2.0283,2.0279,2.0287,2.0285,2.0286,2.0243,2.0236,2.029,2.029,2.029,2.029,2.029,2.029,2.0156,2.0182,2.0181,2.021,2.0214,2.0233,2.024,2.0248,2.0254,2.0276,2.0289,2.029,2.0295,2.0309,2.0322,2.0323,2.0327,2.0337,2.0335,2.0295,2.0289,2.0283,2.0277,2.0338,2.0339,2.0377,2.0377,2.0378]}]]